Location: Cisewo
(53.3833°N, 14.9000°E)
Time: 13:26:04
(UTC+00:00)

USA 229 - Pass Details

Date: 06 August 2021
Orbit: 956 x 1256 km, 63.5° (Epoch: 08 August)

Event Time Altitude Azimuth Distance (km) Brightness Sun altitude
Rises 19:57:31 0° 312° (NW) 3,926 9.1 -9.3°
Reaches altitude 10° 20:00:07 10° 311° (NW) 3,007 7.7 -9.6°
Maximum altitude 20:07:19 75° 228° (SW) 1,224 4.0 -10.3°
Enters shadow 20:14:14 13° 145° (SE) 2,929 5.3 -11.0°
